Tracking 27122 objects as of 25-Mar-2023
HD Live streaming from Space Station
objects crossing your sky now

ARIANE 42P DEB

Track ARIANE 42P DEB now!
10-day predictions


NORAD ID: 47107
Int'l Code: 1992-052N
Perigee: 1,298.4 km
Apogee: 1,398.2 km
Inclination: 66.1 °
Period: 112.5 minutes
Semi major axis: 7719 km
RCS: Unknown
Launch date: August 10, 1992
Source: France (FR)
Launch site: FRENCH GUIANA (FRGUI)

Note: This is SATELLITE DEBRIS
Your satellite tracking list
Your tracking list is empty




NASA's NSSDC Master Catalog

Two Line Element Set (TLE):
1 47107U 92052N   23084.07145695  .00002269  00000-0  10136-1 0  9992
2 47107  66.0662 217.1560 0064669 110.6130 250.1837 12.80078361155500
Source of the keplerian elements: AFSPC